Lid_Strength_Index
1 0 0 1 1 1 1 0 0 -1 -0 -0 -0 0 0 -0 -0 -0 -0 -0 1 0 0 0 0 -0 1 0 0 1 2 1 3 2 1 -0 -0 -0 -1 -1 -1 -2 -1
0 0 1 0 0 1 1 1 0 -0 -1 -0 -0 0 0 -0 -0 0 0 0 1 1 1 1 1 0 0 -0 1 1 1 1 2 2 1 1 0 -1 -1 -1 -0 -1 -1
0 1 1 1 1 1 1 0 0 -0 -0 -0 -0 0 0 0 0 0 0 0 1 1 1 1 1 0 1 1 0 1 1 1 0 2 2 1 0 0 0 -0 -0 -1 -1
1 1 1 1 1 1 0 0 0 0 0 0 0 -0 0 0 0 0 0 0 1 0 0 0 0 0 1 0 1 1 1 1 0 2 2 2 1 0 0 1 1 0 0
1 1 1 1 0 1 1 1 0 0 0 0 0 1 0 0 0 0 0 1 1 1 0 1 0 0 1 1 0 1 0 1 2 2 3 2 2 2 1 1 1 1 -0
1 1 0 0 0 0 0 1 1 0 0 -0 1 0 0 0 2 2 1 1 1 1 1 1 0 0 0 2 2 1 0 1 2 2 2 3 1 1 0 1 1 2 3
0 0 0 -0 0 -0 -0 0 1 0 0 0 0 0 1 0 3 4 2 0 1 1 1 1 1 0 1 0 2 2 2 1 1 1 2 2 1 0 -0 1 1 1 2
0 0 -0 -0 -0 -0 -0 -0 0 0 1 1 1 0 0 0 4 5 4 0 0 1 1 0 1 1 0 0 0 1 1 0 0 0 0 0 0 -1 -0 -0 0 0 1
1 0 -0 -0 0 0 0 0 0 0 0 1 0 0 0 0 5 6 3 0 1 1 0 0 1 1 1 4 1 1 1 1 3 5 5 5 4 4 2 0 1 2 2
0 -0 -0 -0 -0 0 0 0 -0 0 1 0 0 0 1 0 4 6 3 1 1 1 1 0 3 1 4 5 1 1 2 1 1 1 1 4 4 2 4 1 0 2 2
0 -0 -0 -0 -0 -0 0 0 0 1 1 1 1 0 0 0 0 6 5 1 1 1 1 1 0 5 6 6 6 1 2 1 1 1 1 1 0 0 0 -0 -1 0 2
0 0 0 0 0 0 0 0 0 1 1 1 1 1 1 0 2 6 6 6 2 1 1 1 0 7 9 8 6 3 5 3 0 2 2 2 1 1 0 -0 -1 -1 -1
0 1 0 0 0 0 1 1 1 1 2 2 2 2 1 0 0 5 6 6 6 2 0 2 5 7 7 7 7 6 6 1 1 2 3 2 1 0 -1 -0 -1 -1 -1
1 1 1 1 1 1 1 1 1 1 2 1 2 2 1 1 1 0 1 1 5 3 3 1 2 2 5 3 4 5 1 1 1 2 2 1 0 0 1 0 1 1 1
1 1 1 1 1 1 1 1 1 0 1 1 1 1 2 2 1 3 3 1 1 2 3 1 1 2 2 2 1 2 2 1 2 1 2 2 1 1 1 0 1 1 2
2 1 1 1 1 1 1 1 3 5 5 6 7 4 1 3 6 7 6 7 10 9 1 2 3 2 2 3 3 2 1 2 1 1 2 2 2 1 1 1 1 1 2
1 1 1 2 1 2 1 2 2 2 8 7 8 8 8 5 9 9 10 11 10 8 2 2 3 2 2 2 2 2 2 2 1 2 2 2 2 1 2 1 1 1 2
1 3 2 1 2 2 2 2 2 2 2 2 4 8 10 11 11 11 11 10 2 5 2 2 2 2 2 2 2 2 2 2 2 2 2 2 2 1 1 2 2 2 2
1 1 1 1 1 2 1 1 2 2 2 2 1 4 7 11 12 12 12 2 2 2 2 2 2 2 2 1 1 1 1 2 2 3 2 2 2 1 1 1 1 5 3
1 2 2 1 1 2 2 2 2 2 2 2 2 2 2 4 4 4 5 1 2 1 1 1 1 1 1 1 1 1 1 2 2 2 2 2 2 1 2 2 3 2 2
1 1 2 2 2 2 2 2 2 2 2 2 2 2 6 2 2 2 2 2 1 1 1 1 1 1 1 1 1 1 1 2 2 2 2 2 2 2 2 3 2 2 1
2 2 1 2 2 2 2 2 2 2 2 2 2 1 8 1 2 2 1 2 1 1 0 1 1 1 1 1 1 1 1 2 2 2 2 2 3 2 2 2 2 1 2
2 2 2 1 2 2 2 2 2 2 2 2 2 2 2 2 2 2 1 1 1 1 0 0 0 1 1 0 0 0 1 1 1 1 1 2 2 3 2 2 2 2 2
4 4 3 3 2 2 2 2 2 4 2 2 2 2 2 1 2 1 1 1 1 1 1 1 0 1 0 0 0 0 -0 0 -0 0 1 1 2 3 1 1 2 1 2
5 4 4 4 3 3 3 3 3 3 3 2 2 2 2 1 1 1 1 1 1 1 1 1 1 -0 0 0 0 0 4 12 1 4 1 0 1 2 2 2 2 2 1
5 5 5 5 5 4 4 4 4 4 3 3 2 2 1 1 1 1 1 1 1 1 1 1 0 1 0 0 0 5 15 13 6 9 0 1 2 2 3 1 1 1 1